Time,TemperatureF,DewpointF,PressureIn,WindDirection,WindDirectionDegrees,WindSpeedMPH,WindSpeedGustMPH,Humidity,HourlyPrecipIn,Conditions,Clouds,dailyrainin,SolarRadiationWatts/m^2,SoftwareType,DateUTC
2013-08-05 00:00:00,66.0,40.0,-100.00,SW,228,3.0,8.0,39,0.00,,,0.02,0.000000,,2013-08-05 07:00:00,
2013-08-05 00:33:00,66.0,40.0,-100.00,SW,228,3.0,8.0,39,0.00,,,0.02,0.000000,,2013-08-05 07:33:00,
2013-08-05 00:43:00,66.0,40.0,-100.00,SW,228,3.0,8.0,39,0.00,,,0.02,0.000000,,2013-08-05 07:43:00,
2013-08-05 00:53:00,66.0,40.0,-100.00,SW,228,3.0,8.0,39,0.00,,,0.02,0.000000,,2013-08-05 07:53:00,
2013-08-05 01:00:00,64.0,42.0,-100.00,WSW,253,3.0,7.0,44,0.00,,,-99.99,0.000000,,2013-08-05 08:00:00,
2013-08-05 01:34:00,64.0,42.0,-100.00,WSW,253,3.0,7.0,44,0.00,,,-99.99,0.000000,,2013-08-05 08:34:00,
2013-08-05 01:50:00,64.0,42.0,-100.00,WSW,253,3.0,7.0,44,0.00,,,-99.99,0.000000,,2013-08-05 08:50:00,
2013-08-05 02:00:00,65.0,39.0,-100.00,West,275,5.0,8.0,38,0.00,,,0.02,0.000000,,2013-08-05 09:00:00,
2013-08-05 02:41:00,65.0,39.0,-100.00,West,275,5.0,8.0,38,0.00,,,0.02,0.000000,,2013-08-05 09:41:00,
2013-08-05 02:48:00,65.0,39.0,-100.00,West,275,5.0,8.0,38,0.00,,,0.02,0.000000,,2013-08-05 09:48:00,
2013-08-05 02:53:00,65.0,39.0,-100.00,West,275,5.0,8.0,38,0.00,,,0.02,0.000000,,2013-08-05 09:53:00,
2013-08-05 03:00:00,62.0,39.0,-100.00,NNW,341,4.0,9.0,42,0.00,,,0.02,0.000000,,2013-08-05 10:00:00,
2013-08-05 03:35:00,62.0,39.0,-100.00,NNW,341,4.0,9.0,42,0.00,,,0.02,0.000000,,2013-08-05 10:35:00,
2013-08-05 03:49:00,62.0,39.0,-100.00,NNW,341,4.0,9.0,42,0.00,,,0.02,0.000000,,2013-08-05 10:49:00,
2013-08-05 04:00:00,63.0,38.0,-100.00,NNW,332,4.0,9.0,39,0.00,,,0.02,0.000000,,2013-08-05 11:00:00,
2013-08-05 04:38:00,63.0,38.0,-100.00,NNW,332,4.0,9.0,39,0.00,,,0.02,0.000000,,2013-08-05 11:38:00,
2013-08-05 04:52:00,63.0,38.0,-100.00,NNW,332,4.0,9.0,39,0.00,,,0.02,0.000000,,2013-08-05 11:52:00,
2013-08-05 04:58:00,63.0,38.0,-100.00,NNW,332,4.0,9.0,39,0.00,,,0.02,0.000000,,2013-08-05 11:58:00,
2013-08-05 05:00:00,61.0,34.0,-100.00,NNW,339,4.0,8.0,36,0.00,,,0.02,0.000000,,2013-08-05 12:00:00,
2013-08-05 05:34:00,61.0,34.0,-100.00,NNW,339,4.0,8.0,36,0.00,,,0.02,0.000000,,2013-08-05 12:34:00,
2013-08-05 05:50:00,61.0,34.0,-100.00,NNW,339,4.0,8.0,36,0.00,,,0.02,0.000000,,2013-08-05 12:50:00,
2013-08-05 05:57:00,61.0,34.0,-100.00,NNW,339,4.0,8.0,36,0.00,,,0.02,0.000000,,2013-08-05 12:57:00,
2013-08-05 06:45:00,61.0,31.0,-100.00,NNW,336,3.0,5.0,32,0.00,,,0.02,0.000000,,2013-08-05 13:45:00,
2013-08-05 06:54:00,61.0,31.0,-100.00,NNW,336,3.0,5.0,32,0.00,,,0.02,0.000000,,2013-08-05 13:54:00,
2013-08-05 07:00:00,66.0,33.0,-100.00,WNW,298,0.0,5.0,29,0.00,,,0.02,11.000000,,2013-08-05 14:00:00,
2013-08-05 07:40:00,66.0,33.0,-100.00,WNW,298,0.0,5.0,29,0.00,,,0.02,11.000000,,2013-08-05 14:40:00,
2013-08-05 07:48:00,66.0,33.0,-100.00,WNW,298,0.0,5.0,29,0.00,,,0.02,11.000000,,2013-08-05 14:48:00,
2013-08-05 07:54:00,66.0,33.0,-100.00,WNW,298,0.0,5.0,29,0.00,,,0.02,11.000000,,2013-08-05 14:54:00,
2013-08-05 08:00:00,70.0,41.0,-100.00,WNW,290,0.0,3.0,35,0.00,,,0.02,74.000000,,2013-08-05 15:00:00,
2013-08-05 08:39:00,70.0,41.0,-100.00,WNW,290,0.0,3.0,35,0.00,,,0.02,74.000000,,2013-08-05 15:39:00,
2013-08-05 08:49:00,70.0,41.0,-100.00,WNW,290,0.0,3.0,35,0.00,,,0.02,74.000000,,2013-08-05 15:49:00,
2013-08-05 08:58:00,70.0,41.0,-100.00,WNW,290,0.0,3.0,35,0.00,,,0.02,74.000000,,2013-08-05 15:58:00,
2013-08-05 09:00:00,75.0,39.0,-100.00,SW,228,2.0,6.0,27,0.00,,,0.02,270.000000,,2013-08-05 16:00:00,
2013-08-05 09:33:00,75.0,39.0,-100.00,SW,228,2.0,6.0,27,0.00,,,0.02,270.000000,,2013-08-05 16:33:00,
2013-08-05 09:45:00,75.0,39.0,-100.00,SW,228,2.0,6.0,27,0.00,,,0.02,270.000000,,2013-08-05 16:45:00,
2013-08-05 09:58:00,75.0,39.0,-100.00,SW,228,2.0,6.0,27,0.00,,,0.02,270.000000,,2013-08-05 16:58:00,
2013-08-05 10:39:00,79.0,40.0,-100.00,SSW,207,3.0,7.0,25,0.00,,,0.02,735.000000,,2013-08-05 17:39:00,
2013-08-05 10:50:00,79.0,40.0,-100.00,SSW,207,3.0,7.0,25,0.00,,,0.02,735.000000,,2013-08-05 17:50:00,
2013-08-05 11:39:00,77.0,40.0,-100.00,SSW,213,4.0,9.0,27,0.00,,,0.02,947.000000,,2013-08-05 18:39:00,
2013-08-05 11:45:00,77.0,40.0,-100.00,SSW,213,4.0,9.0,27,0.00,,,0.02,947.000000,,2013-08-05 18:45:00,
2013-08-05 11:54:00,77.0,40.0,-100.00,SSW,213,4.0,9.0,27,0.00,,,0.02,947.000000,,2013-08-05 18:54:00,
2013-08-05 12:00:00,82.0,38.0,-100.00,SSW,209,5.0,11.0,21,0.00,,,0.02,968.000000,,2013-08-05 19:00:00,
2013-08-05 12:39:00,82.0,38.0,-100.00,SSW,209,5.0,11.0,21,0.00,,,0.02,968.000000,,2013-08-05 19:39:00,
2013-08-05 12:52:00,82.0,38.0,-100.00,SSW,209,5.0,11.0,21,0.00,,,0.02,968.000000,,2013-08-05 19:52:00,
2013-08-05 13:00:00,81.0,33.0,-100.00,SW,236,5.0,13.0,18,0.00,,,0.02,1113.000000,,2013-08-05 20:00:00,
2013-08-05 13:48:00,81.0,33.0,-100.00,SW,236,5.0,13.0,18,0.00,,,0.02,1113.000000,,2013-08-05 20:48:00,
2013-08-05 13:58:00,81.0,33.0,-100.00,SW,236,5.0,13.0,18,0.00,,,0.02,1113.000000,,2013-08-05 20:58:00,
2013-08-05 14:34:00,83.0,29.0,-100.00,NNW,332,5.0,16.0,14,0.00,,,0.02,948.000000,,2013-08-05 21:34:00,
2013-08-05 14:48:00,83.0,29.0,-100.00,NNW,332,5.0,16.0,14,0.00,,,0.02,948.000000,,2013-08-05 21:48:00,
2013-08-05 14:53:00,83.0,29.0,-100.00,NNW,332,5.0,16.0,14,0.00,,,0.02,948.000000,,2013-08-05 21:53:00,
2013-08-05 15:00:00,85.0,29.0,-100.00,WNW,283,5.0,16.0,13,0.00,,,0.02,1226.000000,,2013-08-05 22:00:00,
2013-08-05 15:38:00,85.0,29.0,-100.00,WNW,283,5.0,16.0,13,0.00,,,0.02,1226.000000,,2013-08-05 22:38:00,
2013-08-05 15:44:00,85.0,29.0,-100.00,WNW,283,5.0,16.0,13,0.00,,,0.02,1226.000000,,2013-08-05 22:44:00,
2013-08-05 15:53:00,85.0,29.0,-100.00,WNW,283,5.0,16.0,13,0.00,,,0.02,1226.000000,,2013-08-05 22:53:00,
2013-08-05 16:00:00,87.0,30.0,-100.00,WNW,285,4.0,14.0,13,0.00,,,0.02,1099.000000,,2013-08-05 23:00:00,
2013-08-05 16:33:00,87.0,30.0,-100.00,WNW,285,4.0,14.0,13,0.00,,,0.02,1099.000000,,2013-08-05 23:33:00,
2013-08-05 16:46:00,87.0,30.0,-100.00,WNW,285,4.0,14.0,13,0.00,,,0.02,1099.000000,,2013-08-05 23:46:00,
2013-08-05 16:58:00,87.0,30.0,-100.00,WNW,285,4.0,14.0,13,0.00,,,0.02,1099.000000,,2013-08-05 23:58:00,
2013-08-05 17:00:00,82.0,28.0,-100.00,West,269,6.0,14.0,14,0.00,,,0.00,1005.000000,,2013-08-06 00:00:00,
2013-08-05 17:37:00,82.0,28.0,-100.00,West,269,6.0,14.0,14,0.00,,,0.00,1005.000000,,2013-08-06 00:37:00,
2013-08-05 17:45:00,82.0,28.0,-100.00,West,269,6.0,14.0,14,0.00,,,0.00,1005.000000,,2013-08-06 00:45:00,
2013-08-05 17:57:00,82.0,28.0,-100.00,West,269,6.0,14.0,14,0.00,,,0.00,1005.000000,,2013-08-06 00:57:00,
2013-08-05 18:42:00,84.0,30.0,-100.00,WSW,253,5.0,10.0,14,0.00,,,0.00,638.000000,,2013-08-06 01:42:00,
2013-08-05 19:00:00,79.0,27.0,-100.00,WNW,294,4.0,15.0,15,0.00,,,0.00,247.000000,,2013-08-06 02:00:00,
2013-08-05 19:33:00,79.0,27.0,-100.00,WNW,294,4.0,15.0,15,0.00,,,0.00,247.000000,,2013-08-06 02:33:00,
2013-08-05 19:48:00,79.0,27.0,-100.00,WNW,294,4.0,15.0,15,0.00,,,0.00,247.000000,,2013-08-06 02:48:00,
2013-08-05 20:00:00,74.0,29.0,-100.00,NW,323,6.0,13.0,19,0.00,,,0.00,180.000000,,2013-08-06 03:00:00,
2013-08-05 20:35:00,74.0,29.0,-100.00,NW,323,6.0,13.0,19,0.00,,,0.00,180.000000,,2013-08-06 03:35:00,
2013-08-05 20:45:00,74.0,29.0,-100.00,NW,323,6.0,13.0,19,0.00,,,0.00,180.000000,,2013-08-06 03:45:00,
2013-08-05 20:52:00,74.0,29.0,-100.00,NW,323,6.0,13.0,19,0.00,,,0.00,180.000000,,2013-08-06 03:52:00,
2013-08-05 21:00:00,71.0,28.0,-100.00,NW,324,9.0,14.0,20,0.00,,,0.00,6.000000,,2013-08-06 04:00:00,
2013-08-05 21:33:00,71.0,28.0,-100.00,NW,324,9.0,14.0,20,0.00,,,0.00,6.000000,,2013-08-06 04:33:00,
2013-08-05 21:44:00,71.0,28.0,-100.00,NW,324,9.0,14.0,20,0.00,,,0.00,6.000000,,2013-08-06 04:44:00,
2013-08-05 21:53:00,71.0,28.0,-100.00,NW,324,9.0,14.0,20,0.00,,,0.00,6.000000,,2013-08-06 04:53:00,
2013-08-05 22:00:00,70.0,25.0,-100.00,NW,326,8.0,16.0,18,0.00,,,0.00,0.000000,,2013-08-06 05:00:00,
2013-08-05 22:32:00,70.0,25.0,-100.00,NW,326,8.0,16.0,18,0.00,,,0.00,0.000000,,2013-08-06 05:32:00,
2013-08-05 22:43:00,70.0,25.0,-100.00,NW,326,8.0,16.0,18,0.00,,,0.00,0.000000,,2013-08-06 05:43:00,
2013-08-05 22:53:00,70.0,25.0,-100.00,NW,326,8.0,16.0,18,0.00,,,0.00,0.000000,,2013-08-06 05:53:00,
2013-08-05 23:00:00,70.0,26.0,-100.00,NW,318,9.0,17.0,19,0.00,,,0.00,0.000000,,2013-08-06 06:00:00,
2013-08-05 23:32:00,70.0,26.0,-100.00,NW,318,9.0,17.0,19,0.00,,,0.00,0.000000,,2013-08-06 06:32:00,
2013-08-05 23:43:00,70.0,26.0,-100.00,NW,318,9.0,17.0,19,0.00,,,0.00,0.000000,,2013-08-06 06:43:00,
2013-08-05 23:52:00,70.0,26.0,-100.00,NW,318,9.0,17.0,19,0.00,,,0.00,0.000000,,2013-08-06 06:52:00,